Mecheria, Algeria

1:04 PM CET on November 21, 2019 (GMT +0100)
Mecheria

Weather History for DAAY - May, 2019

Change the Weather History Date:

Thursday, May 23, 2019

  Actual Average (WUND) Record (WUND)
Temperature  
Mean Temperature 74 °F -  
Max Temperature 90 °F - - (-1)
Min Temperature 57 °F - - (-1)
Cooling Degree Days 8    
Growing Degree Days 24 (Base 50)    
Moisture  
Dew Point 57 °F    
Average Humidity 49    
Maximum Humidity 63    
Minimum Humidity 32    
Precipitation  
Precipitation 0.00 in - - ()
Sea Level Pressure  
Sea Level Pressure 30.16 in    
Wind  
Wind Speed 9 mph ()    
Max Wind Speed 21 mph    
Max Gust Speed -    
Visibility 5.9 miles    
Events      
Averages and records for this station are not official NWS values.
T = Trace of Precipitation, MM = Missing Value Source: Averaged Metar Reports

Daily Weather History Graph

Daily Weather History Graph

Search for Another Location

Airport or City:

Astronomy

May. 23, 2019 Rise Set
Actual Time 5:55 AM CET 7:59 PM CET
Civil Twilight 5:27 AM CET 8:27 PM CET
Nautical Twilight 4:53 AM CET 9:02 PM CET
Astronomical Twilight 4:17 AM CET 9:38 PM CET
Moon No Moon Rise 9:46 AM CET (5/23)
Length of Visible Light 15h 00m
Length of Day
14h 04m
Waning Gibbous, 79% of the Moon is Illuminated
May 23
Waning Gibbous
May 26
Last Quarter
Jun 3
New
Jun 10
First Quarter
Jun 17
Full

Hourly Weather History & Observations

Time (CET) Temp. Heat Index Dew Point Humidity Pressure Visibility Wind Dir Wind Speed Gust Speed Precip Events Conditions
12:00 AM 68.0 °F - 48.2 °F 49% 30.21 in 6.2 mi North 13.8 mph - N/A   Scattered Clouds
1:00 AM 66.2 °F - 48.2 °F 52% 30.21 in 6.2 mi North 13.8 mph - N/A   Scattered Clouds
5:00 AM 60.8 °F - 46.4 °F 59% 30.18 in 6.2 mi North 9.2 mph - N/A   Scattered Clouds
6:00 AM 59.0 °F - 44.6 °F 59% 30.18 in - NNE 6.9 mph - N/A   Clear
7:00 AM 59 °F - 47 °F 55%  in 6 mi NNE 6.9 mph - -   Partly Cloudy
7:00 AM 59.0 °F - 46.4 °F 63% 30.18 in - NNE 6.9 mph - N/A   Clear
8:00 AM 66.2 °F - 50.0 °F 56% 30.18 in - NNE 6.9 mph - N/A   Clear
10:00 AM 74 °F - 55 °F 41%  in 6 mi NE 6.9 mph - -  
10:00 AM 73.4 °F - 55.4 °F 53% 30.18 in - NE 6.9 mph - N/A   Clear
11:00 AM 77.0 °F - 55.4 °F 47% 30.18 in - Calm Calm - N/A   Clear
12:00 PM 78.8 °F - 59.0 °F 51% 30.18 in - SSW 11.5 mph - N/A   Clear
1:00 PM 83 °F - 61 °F 37%  in 6 mi SSW 13.8 mph - -  
1:00 PM 84.2 °F 84.4 °F 60.8 °F 45% 30.18 in - SSW 13.8 mph - N/A   Clear
2:00 PM 86.0 °F 86.6 °F 62.6 °F 45% 30.18 in 6.2 mi SSW 16.1 mph - N/A   Scattered Clouds
3:00 PM 87.8 °F 88.5 °F 62.6 °F 43% 30.15 in 6.2 mi SSW 11.5 mph - N/A   Scattered Clouds
3:40 PM 89.6 °F 90.1 °F 62.6 °F 40% 30.12 in 6.2 mi West 9.2 mph - N/A   Scattered Clouds
4:00 PM 89 °F - 63 °F 32%  in 6 mi West 9.2 mph - -   Partly Cloudy
4:00 PM 89.6 °F 90.1 °F 62.6 °F 40% 30.12 in 6.2 mi West 9.2 mph - N/A   Scattered Clouds
5:00 PM 89.6 °F 90.1 °F 62.6 °F 40% 30.12 in 6.2 mi West 11.5 mph - N/A   Scattered Clouds
6:00 PM 87.8 °F 88.5 °F 62.6 °F 43% 30.12 in 6.2 mi West 11.5 mph - N/A   Scattered Clouds
7:00 PM 83 °F - 62 °F 40%  in 6 mi SSW 20.7 mph - -   Partly Cloudy
7:00 PM 82.4 °F 83.4 °F 62.6 °F 51% 30.09 in 6.2 mi SSW 20.7 mph - N/A   Scattered Clouds
8:00 PM 78.8 °F - 60.8 °F 54% 30.09 in 5.0 mi SW 16.1 mph - N/A   Scattered Clouds
10:00 PM 75.2 °F - 59.0 °F 57% 30.15 in 5.0 mi SW 9.2 mph - N/A   Scattered Clouds
11:00 PM 73.4 °F - 59.0 °F 61% 30.15 in 5.0 mi SW 9.2 mph - N/A   Scattered Clouds